Tracking 29487 objects as of 10-Sep-2024
HD Live streaming from Space Station
objects crossing your sky now

STARLINK-5013

Track STARLINK-5013 now!
10-day predictions
STARLINK-5013 is classified as:


NORAD ID: 55492
Int'l Code: 2023-015AV
Perigee: 565.3 km
Apogee: 567.1 km
Inclination: 43.0 °
Period: 95.8 minutes
Semi major axis: 6937 km
RCS: Unknown
Launch date: February 2, 2023
Source: United States (US)
Launch site: AIR FORCE EASTERN TEST RANGE (AFETR)
Your satellite tracking list
Your tracking list is empty




NASA's NSSDC Master Catalog

Two Line Element Set (TLE):
1 55492U 23015AV  24254.15902374  .00001330  00000-0  11354-3 0  9998
2 55492  43.0037  63.0979 0001270 272.3554  87.7142 15.02536994 88364
Source of the keplerian elements: AFSPC